Location: 22
(39.7117°N, 89.5929°W)
Time: 11:34:57
(UTC-06:00)

Vanguard 2 - All Passes

Search period start: 07 February 2023 00:00
Search period end: 17 February 2023 00:00
Orbit: 553 x 2930 km, 32.9° (Epoch: 06 February)

Date Brightness Start Highest point End Pass type
(mag) Time Alt. Az. Time Alt. Az. Time Alt. Az.
07 Feb - 02:05:16 10° W 02:21:06 45° SSW 02:36:06 10° SE visible
07 Feb - 04:20:40 10° W 04:30:56 19° SW 04:40:08 10° S visible
07 Feb - 17:50:12 10° SSE 17:55:32 17° SE 18:02:20 10° E visible
07 Feb - 19:53:48 10° SW 20:03:29 47° SSE 20:18:09 10° E visible
07 Feb - 22:01:25 10° WSW 22:14:05 67° S 22:31:35 10° E visible
08 Feb - 00:10:59 10° W 00:26:10 61° SSW 00:43:25 10° ESE visible
08 Feb - 02:22:34 10° W 02:37:38 38° SW 02:51:58 10° SSE visible
08 Feb - 04:40:55 10° WSW 04:47:07 13° SW 04:52:56 10° SSW visible
08 Feb - 18:05:11 10° S 18:11:39 23° SE 18:20:37 10° E visible
08 Feb - 20:10:11 10° SW 20:20:04 53° SSE 20:35:19 10° E visible
08 Feb - 22:18:11 10° WSW 22:31:00 67° S 22:48:34 10° ESE visible
09 Feb - 00:27:57 10° W 00:43:00 56° SSW 00:59:56 10° SE visible
09 Feb - 02:40:07 10° W 02:54:05 31° SW 03:07:28 10° SSE visible
09 Feb - 18:20:46 10° SSW 18:27:51 30° SE 18:38:19 10° E visible
09 Feb - 20:26:41 10° WSW 20:36:46 59° SSE 20:52:25 10° E visible
09 Feb - 22:35:00 10° W 22:47:55 66° S 23:05:28 10° ESE visible
10 Feb - 00:44:58 10° W 00:59:45 50° SSW 01:16:15 10° SE visible
10 Feb - 02:58:03 10° W 03:10:28 25° SW 03:22:28 10° S visible
10 Feb - 18:36:43 10° SSW 18:44:11 37° SSE 18:55:43 10° E visible
10 Feb - 20:43:18 10° WSW 20:53:32 63° S 21:09:29 10° E visible
10 Feb - 22:51:50 10° W 23:04:49 63° S 23:22:16 10° ESE visible
11 Feb - 01:02:05 10° W 01:16:26 43° SSW 01:32:19 10° SE visible
11 Feb - 03:16:45 10° W 03:26:48 18° SW 03:36:37 10° S visible
11 Feb - 16:49:58 10° SSE 16:53:18 13° SE 16:57:16 10° ESE daylight
11 Feb - 18:52:54 10° SW 19:00:37 44° SSE 19:12:56 10° E visible
11 Feb - 20:59:58 10° WSW 21:10:21 65° S 21:26:30 10° E visible
11 Feb - 23:08:42 10° W 23:21:42 58° SSW 23:38:54 10° ESE visible
12 Feb - 01:19:22 10° W 01:33:03 36° SSW 01:48:02 10° SSE visible
12 Feb - 03:37:21 10° WSW 03:43:08 12° SW 03:48:51 10° SSW visible
12 Feb - 17:04:39 10° S 17:09:24 19° SE 17:15:46 10° E daylight
12 Feb - 19:09:16 10° SW 19:17:10 50° SSE 19:30:04 10° E visible
12 Feb - 21:16:42 10° W 21:27:12 65° S 21:43:27 10° ESE visible
12 Feb - 23:25:36 10° W 23:38:31 52° SSW 23:55:21 10° SE visible
13 Feb - 01:36:56 10° W 01:49:36 29° SW 02:03:20 10° SSE visible
13 Feb - 17:20:11 10° SSW 17:25:37 25° SE 17:33:29 10° E daylight
13 Feb - 19:25:45 10° WSW 19:33:49 56° SSE 19:47:07 10° E visible
13 Feb - 21:33:26 10° W 21:44:04 63° S 22:00:19 10° ESE visible
13 Feb - 23:42:35 10° W 23:55:17 46° SSW 00:11:34 10° SE visible
14 Feb - 01:54:57 10° W 02:06:07 23° SW 02:18:03 10° S visible
14 Feb - 17:36:07 10° SSW 17:41:56 32° SSE 17:50:50 10° E daylight
14 Feb - 19:42:20 10° WSW 19:50:32 59° S 20:04:09 10° E visible
14 Feb - 21:50:14 10° W 22:00:55 59° S 22:17:03 10° ESE visible
14 Feb - 23:59:42 10° W 00:12:00 39° SSW 00:27:30 10° SSE visible
15 Feb - 02:13:55 10° WSW 02:22:36 16° SW 02:31:44 10° S visible
15 Feb - 17:52:17 10° SW 17:58:21 39° SSE 18:08:00 10° E visible
15 Feb - 19:58:58 10° WSW 20:07:18 61° S 20:21:07 10° ESE visible
15 Feb - 22:07:03 10° W 22:17:44 54° SSW 22:33:38 10° SE visible
16 Feb - 00:17:00 10° W 00:28:41 32° SSW 00:43:03 10° SSE night (unlit)
16 Feb - 02:36:03 10° SW 02:39:05 11° SW 02:42:11 10° SW night (unlit)
16 Feb - 16:04:23 10° S 16:07:34 15° SE 16:11:29 10° ESE daylight
16 Feb - 18:08:39 10° SW 18:14:52 46° SSE 18:25:05 10° E visible
16 Feb - 20:15:39 10° WSW 20:24:05 60° S 20:38:01 10° ESE visible
16 Feb - 22:23:55 10° W 22:34:32 47° SSW 22:50:00 10° SE visible
